Location: Unspecified
(0.0000°N, 0.0000°E)
Time: 16:49:01
(UTC+00:00)

N. Korean satellite - Pass Details

Date: 06 December 2021
Orbit: 447 x 490 km, 97.3° (Epoch: 27 January)

Event Time Altitude Azimuth Distance (km) Brightness Sun altitude
Rises 04:05:08 0° 43° (NE) 2,441 10.4 -24.3°
Reaches altitude 10° 04:08:00 10° 71° (ENE) 1,581 9.7 -23.7°
Maximum altitude 04:09:42 13° 102° (ESE) 1,393 9.8 -23.3°
Drops below altitude 10° 04:11:26 10° 132° (SE) 1,596 10.2 -22.9°
Sets 04:14:20 0° 160° (SSE) 2,484 10.8 -22.2°
